ASA460 RKSI-PHNL

Flight info

Callsign ASA460
Flight time N/A
Altitude 35000
Route EGOBA2H EGOBA Y697 KAE Y437 TENAS L512 GTC Y512 ADNAP OTR7 EMRON DCT 37N160E/N0451F370 36N170E 33N180E 29N170W DCT DANNO BOOKE8
Aircraft A332/H-SDE3GHIJ2J3J5M1RVWXY/LB2D1

Departure

Time 2026-05-01 08:48
Airport Incheon International Airport (RKSI)

Arrival

Time N/A
Airport Daniel K. Inouye International Airport (PHNL)
Time Latitude Longitude Altitude Speed Heading
2026-05-01 08:06 37.45470 126.44417 36 ft 0 kts 324°
2026-05-01 08:33 37.45450 126.44436 34 ft 4 kts 324°
2026-05-01 08:33 37.45431 126.44452 33 ft 2 kts 324°
2026-05-01 08:33 37.45419 126.44463 33 ft 4 kts 341°
2026-05-01 08:33 37.45396 126.44465 33 ft 4 kts 26°
2026-05-01 08:34 37.45379 126.44448 34 ft 1 kts 54°
2026-05-01 08:37 37.45385 126.44458 34 ft 4 kts 54°
2026-05-01 08:37 37.45411 126.44504 25 ft 9 kts 54°
2026-05-01 08:38 37.45458 126.44587 36 ft 15 kts 54°
2026-05-01 08:38 37.45529 126.44712 35 ft 20 kts 54°
2026-05-01 08:38 37.45620 126.44872 35 ft 24 kts 54°
2026-05-01 08:38 37.45713 126.45036 35 ft 21 kts 53°
2026-05-01 08:39 37.45734 126.45105 35 ft 0 kts 90°
2026-05-01 08:39 37.45733 126.45108 35 ft 2 kts 94°
2026-05-01 08:40 37.45655 126.45281 35 ft 15 kts 72°
2026-05-01 08:40 37.45687 126.45391 36 ft 11 kts 96°
2026-05-01 08:40 37.45652 126.45455 35 ft 9 kts 141°
2026-05-01 08:41 37.45598 126.45507 35 ft 10 kts 143°
2026-05-01 08:41 37.45537 126.45563 35 ft 11 kts 144°
2026-05-01 08:41 37.45470 126.45623 35 ft 12 kts 144°
2026-05-01 08:41 37.45397 126.45688 35 ft 13 kts 145°
2026-05-01 08:42 37.45320 126.45756 35 ft 13 kts 142°
2026-05-01 08:42 37.45308 126.45845 35 ft 10 kts 68°
2026-05-01 08:42 37.45339 126.45912 35 ft 8 kts 57°
2026-05-01 08:42 37.45370 126.45971 35 ft 8 kts 54°
2026-05-01 08:43 37.45427 126.46031 34 ft 13 kts 16°
2026-05-01 08:43 37.45505 126.46006 31 ft 13 kts 328°
2026-05-01 08:43 37.45512 126.46000 33 ft 0 kts 327°
2026-05-01 08:46 37.45517 126.45995 33 ft 6 kts 327°
2026-05-01 08:47 37.45682 126.45856 33 ft 54 kts 325°
2026-05-01 08:47 37.46120 126.45463 36 ft 102 kts 324°
2026-05-01 08:47 37.46821 126.44839 37 ft 145 kts 324°
2026-05-01 08:47 37.47741 126.43999 211 ft 171 kts 318°
2026-05-01 08:48 37.48701 126.43143 826 ft 167 kts 320°
2026-05-01 08:48 37.49675 126.42351 1458 ft 166 kts 323°
2026-05-01 08:48 37.50698 126.41535 1569 ft 182 kts 324°
2026-05-01 08:48 37.51829 126.40644 1648 ft 201 kts 324°
2026-05-01 08:49 37.53072 126.39676 1782 ft 218 kts 325°
2026-05-01 08:49 37.54387 126.38620 1994 ft 231 kts 324°
2026-05-01 08:49 37.55783 126.37521 2227 ft 242 kts 333°
2026-05-01 08:49 37.57396 126.36800 2566 ft 249 kts 341°
2026-05-01 08:50 37.59097 126.36177 2905 ft 254 kts 342°
2026-05-01 08:50 37.60793 126.35600 3436 ft 253 kts 343°
2026-05-01 08:50 37.62562 126.35302 3672 ft 264 kts
2026-05-01 08:50 37.64241 126.36294 4037 ft 276 kts 40°
2026-05-01 08:51 37.65257 126.38357 4486 ft 283 kts 68°
2026-05-01 08:51 37.65915 126.40714 4834 ft 289 kts 68°
2026-05-01 08:51 37.66573 126.43139 5215 ft 294 kts 71°
2026-05-01 08:51 37.66694 126.45715 5650 ft 300 kts 101°
2026-05-01 08:52 37.66049 126.48215 6200 ft 300 kts 108°
2026-05-01 08:52 37.65314 126.50683 6701 ft 298 kts 109°
2026-05-01 08:52 37.64563 126.53091 7280 ft 297 kts 110°
2026-05-01 08:52 37.63470 126.55365 7524 ft 311 kts 132°
2026-05-01 08:53 37.61892 126.57223 8028 ft 311 kts 139°
2026-05-01 08:53 37.60256 126.59053 8409 ft 317 kts 135°
2026-05-01 08:53 37.58633 126.60962 8790 ft 322 kts 136°
2026-05-01 08:53 37.56980 126.62865 9329 ft 321 kts 135°
2026-05-01 08:54 37.55323 126.64786 9693 ft 327 kts 135°
2026-05-01 08:54 37.53683 126.66695 10191 ft 325 kts 135°
2026-05-01 08:54 37.51968 126.68657 10415 ft 335 kts 136°
2026-05-01 08:54 37.50225 126.70630 10568 ft 346 kts 136°
2026-05-01 08:55 37.48407 126.72688 10748 ft 357 kts 136°
2026-05-01 08:55 37.46531 126.74817 10943 ft 368 kts 136°
2026-05-01 08:55 37.44594 126.77016 11098 ft 380 kts 135°
2026-05-01 08:55 37.42701 126.79381 11250 ft 388 kts 124°
2026-05-01 08:56 37.41453 126.82378 11400 ft 390 kts 101°
2026-05-01 08:56 37.41126 126.85788 11667 ft 388 kts 85°
2026-05-01 08:56 37.41183 126.89189 12106 ft 389 kts 83°
2026-05-01 08:56 37.41334 126.92592 12480 ft 390 kts 77°
2026-05-01 08:57 37.41795 126.95899 12882 ft 390 kts 73°
2026-05-01 08:57 37.42366 126.99243 13303 ft 392 kts 72°
2026-05-01 08:57 37.42944 127.02603 13711 ft 395 kts 72°
2026-05-01 08:57 37.43518 127.05990 14082 ft 397 kts 72°
2026-05-01 08:58 37.44091 127.09418 14417 ft 400 kts 72°
2026-05-01 08:58 37.44661 127.12857 14731 ft 404 kts 72°
2026-05-01 08:58 37.45233 127.16330 15081 ft 406 kts 72°
2026-05-01 08:58 37.45805 127.19828 15463 ft 409 kts 72°
2026-05-01 08:59 37.46378 127.23347 15773 ft 411 kts 73°
2026-05-01 08:59 37.46954 127.26887 16074 ft 415 kts 72°
2026-05-01 08:59 37.47537 127.30472 16374 ft 419 kts 72°
2026-05-01 08:59 37.48119 127.34062 16748 ft 420 kts 72°
2026-05-01 09:00 37.48702 127.37670 17033 ft 422 kts 72°
2026-05-01 09:00 37.49291 127.41309 17349 ft 425 kts 72°
2026-05-01 09:00 37.49880 127.44963 17676 ft 428 kts 72°
2026-05-01 09:00 37.50474 127.48654 17983 ft 431 kts 72°
2026-05-01 09:01 37.51072 127.52375 18223 ft 435 kts 72°
2026-05-01 09:01 37.51676 127.56121 18468 ft 436 kts 72°
2026-05-01 09:01 37.52275 127.59870 18766 ft 437 kts 72°
2026-05-01 09:01 37.52875 127.63637 18971 ft 440 kts 72°
2026-05-01 09:02 37.53470 127.67379 19208 ft 443 kts 72°
2026-05-01 09:02 37.54075 127.71198 19497 ft 445 kts 73°
2026-05-01 09:02 37.54680 127.75029 19771 ft 447 kts 72°
2026-05-01 09:02 37.55291 127.78876 20010 ft 449 kts 72°
2026-05-01 09:03 37.55901 127.82742 20313 ft 450 kts 72°
2026-05-01 09:03 37.56509 127.86608 20600 ft 452 kts 72°
2026-05-01 09:03 37.57121 127.90505 20869 ft 454 kts 72°
2026-05-01 09:03 37.57735 127.94422 21087 ft 456 kts 72°
2026-05-01 09:04 37.58350 127.98348 21349 ft 457 kts 72°
2026-05-01 09:04 37.58965 128.02296 21565 ft 460 kts 73°
2026-05-01 09:04 37.59582 128.06265 21799 ft 462 kts 73°
2026-05-01 09:04 37.60199 128.10245 22026 ft 464 kts 73°
2026-05-01 09:05 37.60820 128.14255 22279 ft 466 kts 73°
2026-05-01 09:05 37.61440 128.18275 22561 ft 468 kts 73°
2026-05-01 09:05 37.62061 128.22311 22817 ft 470 kts 73°
2026-05-01 09:05 37.62685 128.26372 23029 ft 473 kts 73°
2026-05-01 09:06 37.63315 128.30459 23250 ft 475 kts 73°
2026-05-01 09:06 37.63945 128.34557 23471 ft 477 kts 73°
2026-05-01 09:06 37.64573 128.38662 23648 ft 478 kts 73°
2026-05-01 09:06 37.65202 128.42790 23832 ft 480 kts 73°
2026-05-01 09:07 37.65830 128.46939 24006 ft 482 kts 73°
2026-05-01 09:07 37.66459 128.51102 24185 ft 484 kts 73°
2026-05-01 09:07 37.67092 128.55291 24382 ft 486 kts 73°
2026-05-01 09:07 37.67721 128.59470 24569 ft 487 kts 73°
2026-05-01 09:08 37.68353 128.63686 24734 ft 489 kts 73°
2026-05-01 09:08 37.68985 128.67920 24914 ft 491 kts 73°
2026-05-01 09:08 37.69609 128.72158 25105 ft 494 kts 75°
2026-05-01 09:08 37.69943 128.76515 25296 ft 502 kts 82°
2026-05-01 09:09 37.70035 128.80924 25488 ft 505 kts 83°
2026-05-01 09:09 37.70042 128.85386 25637 ft 508 kts 85°
2026-05-01 09:09 37.69998 128.89856 25831 ft 510 kts 85°
2026-05-01 09:09 37.69932 128.94344 26101 ft 511 kts 86°
2026-05-01 09:10 37.69859 128.98819 26317 ft 512 kts 86°
2026-05-01 09:10 37.69787 129.03324 26488 ft 514 kts 85°
2026-05-01 09:10 37.69720 129.07841 26642 ft 516 kts 85°
2026-05-01 09:10 37.69656 129.12375 26827 ft 517 kts 85°
2026-05-01 09:11 37.69593 129.16917 27068 ft 517 kts 86°
2026-05-01 09:11 37.69530 129.21453 27282 ft 518 kts 86°
2026-05-01 09:11 37.69466 129.26015 27437 ft 520 kts 86°
2026-05-01 09:11 37.69401 129.30588 27601 ft 522 kts 86°
2026-05-01 09:12 37.69335 129.35114 27757 ft 523 kts 86°
2026-05-01 09:12 37.69266 129.39700 27988 ft 523 kts 86°
2026-05-01 09:12 37.69194 129.44296 28334 ft 521 kts 87°
2026-05-01 09:12 37.69118 129.48848 28749 ft 517 kts 87°
2026-05-01 09:13 37.69042 129.53385 28975 ft 517 kts 87°
2026-05-01 09:13 37.68965 129.57927 29167 ft 517 kts 87°
2026-05-01 09:13 37.68888 129.62471 29373 ft 517 kts 87°
2026-05-01 09:13 37.68808 129.67007 29588 ft 517 kts 87°
2026-05-01 09:14 37.68727 129.71542 29857 ft 516 kts 87°
2026-05-01 09:14 37.68642 129.76068 30114 ft 514 kts 87°
2026-05-01 09:14 37.68557 129.80581 30254 ft 515 kts 87°
2026-05-01 09:14 37.68470 129.85107 30381 ft 516 kts 87°
2026-05-01 09:15 37.68382 129.89628 30537 ft 516 kts 87°
2026-05-01 09:15 37.68292 129.94158 30664 ft 516 kts 87°
2026-05-01 09:15 37.68139 130.01690 30909 ft 517 kts 87°
2026-05-01 09:16 37.68012 130.07761 31112 ft 517 kts 88°
2026-05-01 09:16 37.67947 130.10762 31239 ft 516 kts 88°
2026-05-01 09:16 37.67849 130.15284 31404 ft 516 kts 88°
2026-05-01 09:17 37.67647 130.24355 31641 ft 517 kts 88°
2026-05-01 09:17 37.67544 130.28890 31759 ft 518 kts 88°
2026-05-01 09:17 37.67332 130.37984 32037 ft 518 kts 88°
2026-05-01 09:18 37.67223 130.42522 32236 ft 516 kts 88°
2026-05-01 09:18 37.67000 130.51561 32562 ft 514 kts 88°
2026-05-01 09:19 37.66773 130.60600 32742 ft 516 kts 88°
2026-05-01 09:19 37.66656 130.65126 32839 ft 516 kts 88°
2026-05-01 09:20 37.66295 130.78714 33129 ft 517 kts 88°
2026-05-01 09:20 37.66046 130.87705 33561 ft 512 kts 88°
2026-05-01 09:21 37.65791 130.96622 33919 ft 507 kts 88°
2026-05-01 09:21 37.65402 131.10015 34024 ft 510 kts 88°
2026-05-01 09:22 37.65133 131.18957 34168 ft 510 kts 88°
2026-05-01 09:22 37.64856 131.27886 34322 ft 509 kts 88°
2026-05-01 09:23 37.64428 131.41268 34607 ft 506 kts 89°
2026-05-01 09:24 37.63990 131.54535 34723 ft 507 kts 89°
2026-05-01 09:25 37.63922 131.72223 34744 ft 502 kts 85°
2026-05-01 09:26 37.64049 131.85440 34744 ft 502 kts 85°
2026-05-01 09:26 37.64110 131.98627 34736 ft 501 kts 86°
2026-05-01 09:27 37.64145 132.11746 34727 ft 500 kts 86°
2026-05-01 09:28 37.64162 132.20522 34728 ft 500 kts 86°
2026-05-01 09:28 37.64172 132.29299 34719 ft 499 kts 86°
2026-05-01 09:29 37.64175 132.42417 34714 ft 498 kts 86°
2026-05-01 09:30 37.64165 132.55522 34715 ft 498 kts 86°
2026-05-01 09:30 37.64311 132.68609 34722 ft 495 kts 82°
2026-05-01 09:31 37.64886 132.77224 34693 ft 491 kts 81°
2026-05-01 09:32 37.65863 132.90040 34684 ft 491 kts 81°
2026-05-01 09:32 37.66833 133.02928 34682 ft 492 kts 81°
2026-05-01 09:33 37.67464 133.11522 34683 ft 491 kts 82°
2026-05-01 09:34 37.68393 133.24388 34675 ft 490 kts 82°
2026-05-01 09:34 37.69306 133.37194 34653 ft 490 kts 82°
2026-05-01 09:35 37.70207 133.50046 34648 ft 489 kts 82°
2026-05-01 09:36 37.70799 133.58590 34639 ft 488 kts 82°
2026-05-01 09:36 37.71384 133.67137 34634 ft 488 kts 82°
2026-05-01 09:37 37.71964 133.75690 34624 ft 488 kts 82°
2026-05-01 09:37 37.72812 133.88505 34612 ft 488 kts 82°
2026-05-01 09:38 37.73645 134.01319 34615 ft 488 kts 83°
2026-05-01 09:39 37.74464 134.14123 34601 ft 488 kts 83°
2026-05-01 09:39 37.75002 134.22659 34602 ft 487 kts 83°
2026-05-01 09:40 37.75792 134.35366 34589 ft 485 kts 83°
2026-05-01 09:41 37.76317 134.43924 34580 ft 485 kts 83°
2026-05-01 09:41 37.77085 134.56635 34577 ft 485 kts 83°
2026-05-01 09:42 37.77584 134.65085 34572 ft 480 kts 84°
2026-05-01 09:43 37.78569 134.81939 34556 ft 481 kts 84°
2026-05-01 09:43 37.79053 134.90369 34548 ft 481 kts 84°
2026-05-01 09:44 37.79766 135.02976 34536 ft 478 kts 85°
2026-05-01 09:45 37.80228 135.11343 34535 ft 477 kts 84°
2026-05-01 09:45 37.80917 135.23957 34526 ft 481 kts 85°
2026-05-01 09:46 37.81370 135.32393 34521 ft 480 kts 85°
2026-05-01 09:46 37.81815 135.40800 34516 ft 478 kts 85°
2026-05-01 09:47 37.82251 135.49137 34513 ft 478 kts 85°
2026-05-01 09:47 37.82684 135.57537 34513 ft 479 kts 86°
2026-05-01 09:48 37.83111 135.65943 34507 ft 479 kts 86°
2026-05-01 09:48 37.83532 135.74360 34502 ft 479 kts 86°
2026-05-01 09:49 37.83948 135.82769 34498 ft 478 kts 86°
2026-05-01 09:49 37.84357 135.91170 34496 ft 478 kts 86°
2026-05-01 09:50 37.84760 135.99573 34499 ft 478 kts 86°
2026-05-01 09:50 37.85159 136.07981 34495 ft 478 kts 87°
2026-05-01 09:51 37.85549 136.16371 34492 ft 478 kts 87°
2026-05-01 09:51 37.85933 136.24766 34487 ft 477 kts 88°
2026-05-01 09:52 37.86311 136.33152 34484 ft 477 kts 88°
2026-05-01 09:52 37.86684 136.41550 34476 ft 477 kts 87°
2026-05-01 09:53 37.87050 136.49937 34479 ft 478 kts 88°
2026-05-01 09:53 37.87412 136.58329 34481 ft 478 kts 89°
2026-05-01 09:54 37.87766 136.66705 34479 ft 481 kts 89°
2026-05-01 09:54 37.88117 136.75170 34477 ft 482 kts 89°
2026-05-01 09:55 37.88463 136.83633 34475 ft 480 kts 89°
2026-05-01 09:55 37.88803 136.92055 34476 ft 478 kts 91°
2026-05-01 09:56 37.89134 137.00461 34475 ft 478 kts 90°
2026-05-01 09:56 37.89457 137.08878 34474 ft 479 kts 92°
2026-05-01 09:57 37.89774 137.17306 34462 ft 480 kts 91°
2026-05-01 09:57 37.90087 137.25677 34468 ft 478 kts 91°
2026-05-01 09:58 37.90404 137.34095 34465 ft 478 kts 91°
2026-05-01 09:58 37.90724 137.42511 34463 ft 478 kts 91°
2026-05-01 09:59 37.91039 137.50923 34468 ft 478 kts 90°
2026-05-01 09:59 37.91346 137.59345 34468 ft 478 kts 91°
2026-05-01 10:00 37.91645 137.67766 34473 ft 478 kts 91°
2026-05-01 10:00 37.91936 137.76125 34476 ft 478 kts 91°
2026-05-01 10:01 37.92224 137.84555 34473 ft 478 kts 92°
2026-05-01 10:01 37.92506 137.92974 34479 ft 478 kts 91°
2026-05-01 10:02 37.92783 138.01394 34477 ft 479 kts 92°
2026-05-01 10:02 37.93052 138.09830 34485 ft 481 kts 92°
2026-05-01 10:03 37.93318 138.18310 34484 ft 481 kts 92°
2026-05-01 10:03 37.93534 138.25345 34484 ft 481 kts 92°
2026-05-01 10:04 37.93786 138.33770 34482 ft 480 kts 93°
2026-05-01 10:04 37.94074 138.43654 34482 ft 480 kts 93°
2026-05-01 10:05 37.94275 138.50681 34477 ft 480 kts 94°
2026-05-01 10:05 37.94512 138.59150 34480 ft 481 kts 94°
2026-05-01 10:06 37.94742 138.67618 34479 ft 481 kts 94°
2026-05-01 10:06 37.94965 138.76075 34476 ft 480 kts 95°
2026-05-01 10:07 37.95183 138.84520 34475 ft 479 kts 95°
2026-05-01 10:07 37.95393 138.92954 34479 ft 479 kts 95°
2026-05-01 10:08 37.95699 139.05621 34473 ft 479 kts 95°
2026-05-01 10:09 37.96142 139.14025 34471 ft 484 kts 91°
2026-05-01 10:09 37.96985 139.22518 34489 ft 486 kts 90°
2026-05-01 10:10 37.97901 139.31020 34495 ft 486 kts 90°
2026-05-01 10:10 37.99266 139.43760 34497 ft 486 kts 91°
2026-05-01 10:11 38.00157 139.52264 34478 ft 487 kts 92°
2026-05-01 10:11 38.01037 139.60787 34495 ft 489 kts 92°
2026-05-01 10:12 38.01917 139.69325 34493 ft 489 kts 92°
2026-05-01 10:13 38.03228 139.82131 34475 ft 486 kts 94°
2026-05-01 10:13 38.04088 139.90640 34467 ft 486 kts 94°
2026-05-01 10:14 38.05358 140.03333 34443 ft 485 kts 94°
2026-05-01 10:14 38.06203 140.11833 34426 ft 485 kts 95°
2026-05-01 10:15 38.07040 140.20334 34435 ft 485 kts 95°
2026-05-01 10:15 38.07869 140.28836 34415 ft 485 kts 95°
2026-05-01 10:16 38.08696 140.37320 34415 ft 484 kts 95°
2026-05-01 10:17 38.09921 140.50069 34403 ft 486 kts 96°
2026-05-01 10:17 38.11130 140.62820 34382 ft 487 kts 96°
2026-05-01 10:18 38.12333 140.75631 34315 ft 486 kts 97°
2026-05-01 10:19 38.13127 140.84180 34360 ft 488 kts 97°
2026-05-01 10:19 38.13601 140.92668 34358 ft 468 kts 108°
2026-05-01 10:20 38.12514 141.04785 34361 ft 457 kts 112°
2026-05-01 10:20 38.11584 141.12762 34358 ft 457 kts 113°
2026-05-01 10:21 38.10181 141.24754 34371 ft 459 kts 113°
2026-05-01 10:22 38.08802 141.36743 34379 ft 460 kts 113°
2026-05-01 10:23 38.07411 141.48788 34381 ft 459 kts 113°
2026-05-01 10:23 38.06009 141.60804 34377 ft 459 kts 113°
2026-05-01 10:24 38.04098 141.76907 34382 ft 465 kts 113°
2026-05-01 10:25 38.02152 141.93191 34379 ft 468 kts 113°
2026-05-01 10:26 38.01169 142.01364 34396 ft 468 kts 113°
2026-05-01 10:27 37.99179 142.17704 34394 ft 470 kts 113°
2026-05-01 10:28 37.97666 142.29993 34371 ft 470 kts 112°
2026-05-01 10:28 37.96141 142.42249 34410 ft 473 kts 112°
2026-05-01 10:29 37.94594 142.54600 34391 ft 472 kts 112°
2026-05-01 10:30 37.92508 142.71074 34425 ft 474 kts 112°
2026-05-01 10:31 37.90391 142.87600 34436 ft 476 kts 112°
2026-05-01 10:32 37.88792 142.99958 34439 ft 476 kts 112°
2026-05-01 10:33 37.86624 143.16540 34454 ft 479 kts 111°
2026-05-01 10:34 37.84979 143.29016 34454 ft 479 kts 111°
2026-05-01 10:34 37.83874 143.37329 34471 ft 479 kts 111°
2026-05-01 10:35 37.82206 143.49810 34476 ft 480 kts 111°
2026-05-01 10:35 37.80542 143.57822 34488 ft 467 kts 120°
2026-05-01 10:36 37.77368 143.69362 34494 ft 464 kts 121°
2026-05-01 10:37 37.75178 143.77040 34499 ft 464 kts 122°
2026-05-01 10:37 37.71937 143.88466 34506 ft 458 kts 122°
2026-05-01 10:38 37.69785 143.96040 34512 ft 458 kts 122°
2026-05-01 10:38 37.67628 144.03610 34515 ft 458 kts 122°
2026-05-01 10:39 37.65470 144.11170 34520 ft 457 kts 122°
2026-05-01 10:39 37.63329 144.18658 34528 ft 456 kts 122°
2026-05-01 10:40 37.61170 144.26178 34522 ft 455 kts 121°
2026-05-01 10:40 37.59000 144.33705 34542 ft 458 kts 121°
2026-05-01 10:41 37.56816 144.41267 34540 ft 459 kts 121°
2026-05-01 10:42 37.53545 144.52574 34536 ft 457 kts 120°
2026-05-01 10:42 37.51352 144.60111 34562 ft 460 kts 120°
2026-05-01 10:43 37.49138 144.67698 34572 ft 463 kts 120°
2026-05-01 10:43 37.46930 144.75260 34568 ft 463 kts 120°
2026-05-01 10:44 37.44705 144.82862 34583 ft 463 kts 120°
2026-05-01 10:44 37.42467 144.90477 34586 ft 464 kts 120°
2026-05-01 10:45 37.40225 144.98089 34590 ft 464 kts 121°
2026-05-01 10:45 37.37978 145.05692 34590 ft 464 kts 120°
2026-05-01 10:46 37.35715 145.13319 34603 ft 467 kts 120°
2026-05-01 10:46 37.33443 145.20969 34616 ft 466 kts 120°
2026-05-01 10:47 37.31172 145.28598 34605 ft 466 kts 119°
2026-05-01 10:47 37.28902 145.36188 34629 ft 468 kts 119°
2026-05-01 10:48 37.26601 145.43864 34641 ft 472 kts 119°
2026-05-01 10:48 37.24277 145.51596 34647 ft 474 kts 119°
2026-05-01 10:49 37.21957 145.59341 34655 ft 476 kts 116°
2026-05-01 10:49 37.20761 145.67656 34655 ft 497 kts 95°
2026-05-01 10:49 37.21088 145.72012 34668 ft 508 kts 83°
2026-05-01 10:50 37.21876 145.76344 34668 ft 511 kts 81°
2026-05-01 10:50 37.23818 145.84970 34675 ft 516 kts 78°
2026-05-01 10:51 37.25885 145.93611 34682 ft 518 kts 78°
2026-05-01 10:51 37.27912 146.02283 34697 ft 517 kts 78°
2026-05-01 10:52 37.29889 146.10960 34710 ft 518 kts 78°
2026-05-01 10:52 37.31857 146.19691 34708 ft 521 kts 78°
2026-05-01 10:53 37.33811 146.28382 34715 ft 520 kts 78°
2026-05-01 10:53 37.35775 146.37145 34727 ft 521 kts 78°
2026-05-01 10:54 37.37737 146.45930 34732 ft 522 kts 78°
2026-05-01 10:54 37.39366 146.53249 34737 ft 522 kts 78°
2026-05-01 10:55 37.41315 146.62039 34740 ft 522 kts 78°
2026-05-01 10:55 37.43261 146.70844 34746 ft 522 kts 78°
2026-05-01 10:56 37.45198 146.79648 34757 ft 522 kts 78°
2026-05-01 10:56 37.47131 146.88472 34764 ft 522 kts 78°
2026-05-01 10:57 37.49061 146.97315 34765 ft 524 kts 78°
2026-05-01 10:57 37.50989 147.06178 34769 ft 525 kts 78°
2026-05-01 10:58 37.52911 147.15049 34766 ft 525 kts 78°
2026-05-01 10:58 37.54820 147.23904 34773 ft 528 kts 78°
2026-05-01 10:59 37.56743 147.32851 34776 ft 529 kts 78°
2026-05-01 10:59 37.58659 147.41801 34778 ft 529 kts 78°
2026-05-01 11:00 37.60574 147.50785 34791 ft 531 kts 78°
2026-05-01 11:00 37.62483 147.59780 34794 ft 530 kts 78°
2026-05-01 11:01 37.64383 147.68762 34808 ft 530 kts 78°
2026-05-01 11:01 37.66282 147.77786 34817 ft 533 kts 78°
2026-05-01 11:02 37.68169 147.86782 34830 ft 533 kts 78°
2026-05-01 11:02 37.70058 147.95826 34831 ft 533 kts 78°
2026-05-01 11:03 37.71948 148.04918 34849 ft 537 kts 78°
2026-05-01 11:03 37.73842 148.14069 34849 ft 538 kts 78°
2026-05-01 11:04 37.75729 148.23215 34859 ft 538 kts 78°
2026-05-01 11:04 37.77610 148.32376 34872 ft 539 kts 78°
2026-05-01 11:05 37.79475 148.41500 34883 ft 539 kts 78°
2026-05-01 11:05 37.81343 148.50675 34894 ft 539 kts 78°
2026-05-01 11:06 37.83207 148.59874 34907 ft 540 kts 78°
2026-05-01 11:06 37.85066 148.69086 34907 ft 540 kts 78°
2026-05-01 11:07 37.87843 148.82921 34920 ft 541 kts 78°
2026-05-01 11:07 37.89684 148.92147 34919 ft 541 kts 78°
2026-05-01 11:08 37.91521 149.01392 34931 ft 541 kts 78°
2026-05-01 11:09 37.94250 149.15204 34941 ft 541 kts 78°
2026-05-01 11:09 37.96069 149.24458 34939 ft 541 kts 78°
2026-05-01 11:10 37.98785 149.38357 34958 ft 541 kts 78°
2026-05-01 11:10 38.00586 149.47621 34958 ft 541 kts 78°
2026-05-01 11:11 38.02379 149.56895 34965 ft 541 kts 78°
2026-05-01 11:11 38.04165 149.66170 34948 ft 541 kts 78°
2026-05-01 11:12 38.05933 149.75394 34983 ft 542 kts 78°
2026-05-01 11:12 38.07708 149.84698 34990 ft 542 kts 78°
2026-05-01 11:13 38.09475 149.94000 34991 ft 542 kts 78°
2026-05-01 11:13 38.10263 150.03411 35001 ft 533 kts 96°
2026-05-01 11:14 38.09828 150.12802 35007 ft 532 kts 99°
2026-05-01 11:14 38.09160 150.22168 35019 ft 532 kts 100°
2026-05-01 11:15 38.08465 150.31527 35023 ft 533 kts 100°
2026-05-01 11:15 38.07790 150.40903 35031 ft 533 kts 100°
2026-05-01 11:16 38.07123 150.50268 34996 ft 533 kts 99°
2026-05-01 11:16 38.06452 150.59645 35040 ft 534 kts 99°
2026-05-01 11:17 38.05777 150.68962 35048 ft 534 kts 99°
2026-05-01 11:17 38.05090 150.78342 35059 ft 534 kts 99°
2026-05-01 11:18 38.04392 150.87733 35064 ft 535 kts 99°
2026-05-01 11:18 38.03688 150.97128 35064 ft 535 kts 99°
2026-05-01 11:19 38.02976 151.06520 35081 ft 535 kts 99°
2026-05-01 11:19 38.02255 151.15925 35086 ft 536 kts 99°
2026-05-01 11:20 38.01525 151.25352 35094 ft 537 kts 99°
2026-05-01 11:20 38.00789 151.34762 35108 ft 537 kts 99°
2026-05-01 11:21 38.00043 151.44201 35103 ft 538 kts 99°
2026-05-01 11:21 37.99288 151.53647 35110 ft 539 kts 99°
2026-05-01 11:22 37.98531 151.63039 35113 ft 539 kts 99°
2026-05-01 11:22 37.97760 151.72490 35101 ft 540 kts 99°
2026-05-01 11:23 37.96980 151.81970 35129 ft 541 kts 99°
2026-05-01 11:23 37.96193 151.91440 35129 ft 540 kts 99°
2026-05-01 11:24 37.95397 152.00917 35138 ft 542 kts 99°
2026-05-01 11:25 37.94185 152.15179 35140 ft 543 kts 99°
2026-05-01 11:25 37.92955 152.29450 35154 ft 542 kts 99°
2026-05-01 11:26 37.91710 152.43689 35162 ft 542 kts 99°
2026-05-01 11:27 37.90871 152.53168 35184 ft 542 kts 99°
2026-05-01 11:27 37.90028 152.62594 35168 ft 543 kts 99°
2026-05-01 11:28 37.89172 152.72097 35178 ft 543 kts 99°
2026-05-01 11:28 37.88308 152.81602 35183 ft 543 kts 99°
2026-05-01 11:29 37.86995 152.95869 35194 ft 544 kts 99°
2026-05-01 11:30 37.85666 153.10129 35199 ft 544 kts 99°
2026-05-01 11:30 37.84769 153.19642 35209 ft 544 kts 99°
2026-05-01 11:31 37.83870 153.29094 35215 ft 545 kts 99°
2026-05-01 11:31 37.82959 153.38603 35219 ft 544 kts 99°
2026-05-01 11:32 37.82039 153.48107 35218 ft 545 kts 99°
2026-05-01 11:32 37.81111 153.57622 35210 ft 545 kts 99°
2026-05-01 11:33 37.80176 153.67128 35230 ft 545 kts 99°
2026-05-01 11:33 37.79233 153.76619 35237 ft 545 kts 99°
2026-05-01 11:34 37.78282 153.86128 35233 ft 545 kts 99°
2026-05-01 11:34 37.77325 153.95620 35235 ft 545 kts 99°
2026-05-01 11:35 37.76358 154.05122 35246 ft 545 kts 99°
2026-05-01 11:35 37.75384 154.14616 35249 ft 545 kts 99°
2026-05-01 11:36 37.74402 154.24119 35248 ft 545 kts 99°
2026-05-01 11:36 37.73418 154.33562 35249 ft 545 kts 99°
2026-05-01 11:37 37.72414 154.43121 35256 ft 546 kts 99°
2026-05-01 11:37 37.71405 154.52650 35265 ft 547 kts 99°
2026-05-01 11:38 37.70390 154.62170 35267 ft 547 kts 99°
2026-05-01 11:38 37.69373 154.71623 35270 ft 548 kts 99°
2026-05-01 11:39 37.68339 154.81167 35271 ft 549 kts 99°
2026-05-01 11:39 37.67298 154.90704 35278 ft 549 kts 99°
2026-05-01 11:40 37.66248 155.00248 35290 ft 549 kts 99°
2026-05-01 11:40 37.65191 155.09778 35278 ft 549 kts 99°
2026-05-01 11:41 37.64124 155.19328 35278 ft 549 kts 99°
2026-05-01 11:41 37.63234 155.27248 35282 ft 549 kts 99°
2026-05-01 11:42 37.61972 155.38385 35286 ft 549 kts 99°
2026-05-01 11:42 37.61067 155.46312 35287 ft 549 kts 99°
2026-05-01 11:43 37.59795 155.57372 35292 ft 548 kts 99°
2026-05-01 11:43 37.58695 155.66864 35296 ft 547 kts 99°
2026-05-01 11:44 37.57210 155.79573 35298 ft 548 kts 99°
2026-05-01 11:44 37.56098 155.89009 35300 ft 547 kts 99°
2026-05-01 11:45 37.54972 155.98498 35299 ft 548 kts 99°
2026-05-01 11:45 37.53835 156.08008 35300 ft 549 kts 99°
2026-05-01 11:46 37.52691 156.17514 35300 ft 548 kts 99°
2026-05-01 11:46 37.51541 156.27009 35314 ft 548 kts 99°
2026-05-01 11:47 37.50383 156.36495 35311 ft 549 kts 99°
2026-05-01 11:47 37.49214 156.46010 35314 ft 549 kts 99°
2026-05-01 11:48 37.48040 156.55504 35320 ft 549 kts 99°
2026-05-01 11:48 37.46865 156.64940 35323 ft 550 kts 99°
2026-05-01 11:49 37.45663 156.74524 35319 ft 551 kts 99°
2026-05-01 11:49 37.44469 156.83982 35317 ft 550 kts 99°
2026-05-01 11:50 37.43260 156.93498 35336 ft 550 kts 99°
2026-05-01 11:50 37.42043 157.03013 35333 ft 552 kts 99°
2026-05-01 11:51 37.40817 157.12539 35333 ft 552 kts 99°
2026-05-01 11:51 37.39582 157.22066 35348 ft 552 kts 99°
2026-05-01 11:52 37.38339 157.31599 35344 ft 553 kts 99°
2026-05-01 11:52 37.37085 157.41153 35343 ft 554 kts 99°
2026-05-01 11:53 37.35824 157.50697 35341 ft 553 kts 99°
2026-05-01 11:53 37.34559 157.60207 35350 ft 552 kts 99°
2026-05-01 11:54 37.33286 157.69724 35349 ft 552 kts 99°
2026-05-01 11:54 37.32003 157.79246 35349 ft 553 kts 99°
2026-05-01 11:55 37.30713 157.88764 35362 ft 553 kts 99°
2026-05-01 11:55 37.29424 157.98218 35357 ft 553 kts 99°
2026-05-01 11:56 37.28118 158.07742 35360 ft 553 kts 99°
2026-05-01 11:56 37.26804 158.17257 35353 ft 553 kts 99°
2026-05-01 11:57 37.25484 158.26761 35366 ft 552 kts 99°
2026-05-01 11:57 37.24156 158.36260 35365 ft 552 kts 99°
2026-05-01 11:58 37.22823 158.45743 35365 ft 552 kts 99°
2026-05-01 11:59 37.20808 158.59970 35371 ft 552 kts 99°
2026-05-01 11:59 37.19454 158.69451 35370 ft 552 kts 99°
2026-05-01 12:00 37.17420 158.83600 35358 ft 552 kts 99°
2026-05-01 12:01 37.15362 158.97789 35377 ft 551 kts 99°
2026-05-01 12:01 37.13980 159.07246 35381 ft 551 kts 99°
2026-05-01 12:02 37.12592 159.16696 35380 ft 551 kts 99°
2026-05-01 12:02 37.11195 159.26147 35386 ft 552 kts 99°
2026-05-01 12:03 37.09786 159.35627 35384 ft 553 kts 99°
2026-05-01 12:03 37.08371 159.45090 35384 ft 553 kts 100°
2026-05-01 12:04 37.06948 159.54551 35395 ft 553 kts 100°
2026-05-01 12:04 37.05517 159.64019 35384 ft 554 kts 100°
2026-05-01 12:05 37.04087 159.73425 35386 ft 554 kts 100°
2026-05-01 12:05 37.01913 159.87626 35397 ft 554 kts 100°
2026-05-01 12:06 37.00453 159.97102 35390 ft 556 kts 99°
2026-05-01 12:06 36.99648 160.06679 35396 ft 554 kts 92°
2026-05-01 12:07 36.99041 160.16287 35389 ft 554 kts 92°
2026-05-01 12:07 36.98481 160.25906 35388 ft 555 kts 91°
2026-05-01 12:08 36.97916 160.35541 35394 ft 555 kts 92°
2026-05-01 12:08 36.97338 160.45155 35395 ft 554 kts 92°
2026-05-01 12:09 36.96751 160.54708 35413 ft 554 kts 92°
2026-05-01 12:09 36.96153 160.64330 35398 ft 555 kts 92°
2026-05-01 12:10 36.95238 160.78780 35398 ft 556 kts 92°
2026-05-01 12:11 36.94307 160.93216 35402 ft 556 kts 92°
2026-05-01 12:11 36.93676 161.02864 35400 ft 557 kts 92°
2026-05-01 12:12 36.93036 161.12511 35398 ft 557 kts 92°
2026-05-01 12:12 36.92388 161.22169 35402 ft 557 kts 92°
2026-05-01 12:13 36.91732 161.31824 35394 ft 558 kts 92°
2026-05-01 12:13 36.91068 161.41479 35400 ft 557 kts 92°
2026-05-01 12:14 36.90398 161.51108 35400 ft 556 kts 92°
2026-05-01 12:14 36.89720 161.60739 35406 ft 557 kts 92°
2026-05-01 12:15 36.89037 161.70335 35404 ft 559 kts 92°
2026-05-01 12:15 36.88340 161.80012 35402 ft 559 kts 92°
2026-05-01 12:16 36.87635 161.89686 35407 ft 559 kts 92°
2026-05-01 12:16 36.86922 161.99358 35408 ft 559 kts 92°
2026-05-01 12:17 36.86201 162.09024 35407 ft 559 kts 92°
2026-05-01 12:17 36.85472 162.18700 35411 ft 559 kts 92°
2026-05-01 12:18 36.84737 162.28361 35416 ft 559 kts 92°
2026-05-01 12:18 36.83993 162.38022 35411 ft 559 kts 92°
2026-05-01 12:19 36.83242 162.47666 35411 ft 558 kts 92°
2026-05-01 12:19 36.82483 162.57314 35411 ft 558 kts 92°
2026-05-01 12:20 36.81717 162.66960 35414 ft 559 kts 92°
2026-05-01 12:20 36.80940 162.76644 35415 ft 561 kts 92°
2026-05-01 12:21 36.80155 162.86327 35413 ft 561 kts 92°
2026-05-01 12:21 36.79361 162.96010 35432 ft 561 kts 92°
2026-05-01 12:22 36.78564 163.05642 35417 ft 563 kts 92°
2026-05-01 12:22 36.77751 163.15365 35418 ft 563 kts 92°
2026-05-01 12:23 36.76931 163.25085 35414 ft 563 kts 92°
2026-05-01 12:23 36.76102 163.34805 35410 ft 563 kts 92°
2026-05-01 12:24 36.75266 163.44512 35412 ft 563 kts 92°
2026-05-01 12:24 36.74421 163.54233 35413 ft 563 kts 92°
2026-05-01 12:25 36.73146 163.68728 35419 ft 564 kts 92°
2026-05-01 12:26 36.72281 163.78456 35411 ft 565 kts 92°
2026-05-01 12:26 36.70967 163.93050 35415 ft 565 kts 92°
2026-05-01 12:27 36.69633 164.07657 35413 ft 566 kts 92°
2026-05-01 12:28 36.68279 164.22298 35414 ft 568 kts 92°
2026-05-01 12:29 36.66908 164.36897 35416 ft 567 kts 92°
2026-05-01 12:29 36.65518 164.51517 35411 ft 566 kts 92°
2026-05-01 12:30 36.64112 164.66118 35412 ft 566 kts 92°
2026-05-01 12:31 36.63164 164.75856 35416 ft 567 kts 92°
2026-05-01 12:31 36.62368 164.83984 35412 ft 569 kts 92°
2026-05-01 12:32 36.61236 164.95416 35412 ft 569 kts 92°
2026-05-01 12:32 36.59773 165.10024 35425 ft 569 kts 92°
2026-05-01 12:33 36.58945 165.18215 35408 ft 570 kts 92°
2026-05-01 12:33 36.57949 165.28004 35408 ft 570 kts 92°
2026-05-01 12:34 36.56943 165.37793 35405 ft 570 kts 92°
2026-05-01 12:34 36.55937 165.47502 35408 ft 569 kts 92°
2026-05-01 12:35 36.54912 165.57318 35406 ft 568 kts 93°
2026-05-01 12:35 36.53894 165.66999 35405 ft 568 kts 93°
2026-05-01 12:36 36.52855 165.76803 35405 ft 568 kts 93°
2026-05-01 12:36 36.51820 165.86488 35404 ft 570 kts 92°
2026-05-01 12:37 36.50768 165.96257 35398 ft 570 kts 92°
2026-05-01 12:37 36.49713 166.06006 35402 ft 571 kts 92°
2026-05-01 12:38 36.48641 166.15797 35421 ft 572 kts 92°
2026-05-01 12:38 36.47559 166.25576 35395 ft 571 kts 92°
2026-05-01 12:39 36.46472 166.35344 35397 ft 570 kts 92°
2026-05-01 12:39 36.45380 166.45100 35377 ft 570 kts 93°
2026-05-01 12:40 36.44288 166.54784 35399 ft 570 kts 93°
2026-05-01 12:40 36.43180 166.64538 35398 ft 570 kts 93°
2026-05-01 12:41 36.42063 166.74289 35393 ft 570 kts 93°
2026-05-01 12:41 36.40938 166.84040 35386 ft 571 kts 93°
2026-05-01 12:42 36.39806 166.93787 35398 ft 571 kts 93°
2026-05-01 12:42 36.38664 167.03545 35389 ft 571 kts 93°
2026-05-01 12:43 36.37514 167.13295 35389 ft 571 kts 93°
2026-05-01 12:43 36.36356 167.23050 35430 ft 571 kts 93°
2026-05-01 12:44 36.35190 167.32800 35384 ft 571 kts 93°
2026-05-01 12:45 36.32843 167.52223 35369 ft 571 kts 93°
2026-05-01 12:45 36.31653 167.61965 35409 ft 572 kts 93°
2026-05-01 12:46 36.30455 167.71703 35385 ft 571 kts 93°
2026-05-01 12:46 36.29249 167.81444 35374 ft 571 kts 93°
2026-05-01 12:47 36.28035 167.91181 35378 ft 571 kts 93°
2026-05-01 12:47 36.26815 168.00904 35388 ft 572 kts 94°
2026-05-01 12:48 36.25584 168.10648 35383 ft 572 kts 94°
2026-05-01 12:49 36.23040 168.30571 35373 ft 572 kts 94°
2026-05-01 12:49 36.21785 168.40308 35379 ft 574 kts 94°
2026-05-01 12:50 36.20527 168.50008 35367 ft 574 kts 94°
2026-05-01 12:50 36.19251 168.59769 35359 ft 574 kts 94°
2026-05-01 12:51 36.17968 168.69507 35386 ft 572 kts 94°
2026-05-01 12:52 36.16029 168.84159 35384 ft 579 kts 94°
2026-05-01 12:52 36.14050 168.98948 35555 ft 582 kts 94°
2026-05-01 12:53 36.12715 169.08824 35762 ft 581 kts 94°
2026-05-01 12:53 36.12044 169.13762 35860 ft 581 kts 94°
2026-05-01 12:54 36.10702 169.23606 36053 ft 580 kts 94°
2026-05-01 12:54 36.09353 169.33445 36217 ft 580 kts 94°
2026-05-01 12:54 36.08675 169.38368 36288 ft 580 kts 94°
2026-05-01 12:55 36.06636 169.53100 36361 ft 585 kts 94°
2026-05-01 12:56 36.05249 169.63027 36359 ft 587 kts 94°
2026-05-01 12:56 36.03850 169.72957 36354 ft 586 kts 94°
2026-05-01 12:57 36.02447 169.82868 36362 ft 586 kts 94°
2026-05-01 12:57 36.00316 169.97785 36355 ft 589 kts 96°
2026-05-01 12:58 35.98069 170.07584 36346 ft 594 kts 102°
2026-05-01 12:59 35.94456 170.22234 36348 ft 597 kts 103°
2026-05-01 12:59 35.90738 170.36945 36344 ft 600 kts 103°
2026-05-01 13:00 35.86994 170.51680 36327 ft 598 kts 103°
2026-05-01 13:01 35.83261 170.66322 36336 ft 598 kts 103°
2026-05-01 13:02 35.79519 170.80923 36332 ft 598 kts 103°
2026-05-01 13:07 35.52493 171.83969 36310 ft 611 kts 103°
2026-05-01 13:07 35.51165 171.88929 36309 ft 613 kts 104°
2026-05-01 13:08 35.48947 171.97194 36305 ft 613 kts 104°
2026-05-01 13:08 35.45833 172.08741 36303 ft 608 kts 104°
2026-05-01 13:09 35.43619 172.16931 36308 ft 609 kts 104°
2026-05-01 13:09 35.40940 172.26814 36299 ft 610 kts 104°
2026-05-01 13:10 35.38255 172.36674 36298 ft 610 kts 104°
2026-05-01 13:10 35.35117 172.48157 36296 ft 613 kts 104°
2026-05-01 13:11 35.32834 172.56485 36304 ft 617 kts 104°
2026-05-01 13:11 35.30088 172.66465 36301 ft 620 kts 104°
2026-05-01 13:12 35.27322 172.76474 36273 ft 618 kts 105°
2026-05-01 13:12 35.24577 172.86355 36288 ft 609 kts 105°
2026-05-01 13:13 35.21851 172.96150 36291 ft 608 kts 105°
2026-05-01 13:13 35.19119 173.05939 36286 ft 608 kts 105°
2026-05-01 13:14 35.16395 173.15665 36288 ft 609 kts 105°
2026-05-01 13:14 35.13634 173.25493 36286 ft 613 kts 105°
2026-05-01 13:15 35.10847 173.35368 36284 ft 617 kts 105°
2026-05-01 13:15 35.08033 173.45301 36283 ft 621 kts 105°
2026-05-01 13:16 35.05209 173.55224 36306 ft 614 kts 105°
2026-05-01 13:16 35.02403 173.65056 36274 ft 615 kts 105°
2026-05-01 13:17 34.96740 173.84812 36270 ft 617 kts 105°
2026-05-01 13:18 34.92463 173.99633 36270 ft 619 kts 106°
2026-05-01 13:18 34.89591 174.09545 36267 ft 621 kts 106°
2026-05-01 13:19 34.86725 174.19397 36264 ft 621 kts 106°
2026-05-01 13:20 34.82382 174.34257 36261 ft 615 kts 107°
2026-05-01 13:20 34.79517 174.44027 36258 ft 618 kts 107°
2026-05-01 13:21 34.75162 174.58817 36254 ft 619 kts 107°
2026-05-01 13:21 34.72248 174.68664 36283 ft 619 kts 108°
2026-05-01 13:22 34.69330 174.78493 36250 ft 617 kts 108°
2026-05-01 13:22 34.66408 174.88296 36244 ft 617 kts 108°
2026-05-01 13:23 34.63482 174.98086 36241 ft 617 kts 108°
2026-05-01 13:23 34.60550 175.07863 36261 ft 617 kts 108°
2026-05-01 13:24 34.57608 175.17638 36241 ft 616 kts 108°
2026-05-01 13:25 34.53182 175.32285 36240 ft 616 kts 108°
2026-05-01 13:25 34.50223 175.42037 36241 ft 616 kts 108°
2026-05-01 13:26 34.47260 175.51765 36237 ft 613 kts 109°
2026-05-01 13:26 34.44304 175.61439 36236 ft 612 kts 109°
2026-05-01 13:27 34.41364 175.71036 36229 ft 612 kts 109°
2026-05-01 13:27 34.36905 175.85527 36237 ft 613 kts 109°
2026-05-01 13:28 34.32431 175.99995 36225 ft 611 kts 109°
2026-05-01 13:29 34.26450 176.19224 36235 ft 611 kts 110°
2026-05-01 13:31 34.17491 176.47805 36223 ft 605 kts 111°
2026-05-01 13:32 34.09973 176.71582 36219 ft 611 kts 110°
2026-05-01 13:33 34.02384 176.95389 36246 ft 609 kts 111°
2026-05-01 13:34 33.96300 177.14344 36209 ft 605 kts 111°
2026-05-01 13:35 33.91730 177.28507 36205 ft 605 kts 111°
2026-05-01 13:36 33.87148 177.42637 36205 ft 601 kts 112°
2026-05-01 13:36 33.82579 177.56666 36200 ft 600 kts 112°
2026-05-01 13:37 33.79525 177.66009 36200 ft 600 kts 112°
2026-05-01 13:37 33.76485 177.75282 36202 ft 599 kts 113°
2026-05-01 13:38 33.71917 177.89164 36195 ft 594 kts 113°
2026-05-01 13:39 33.68869 177.98389 36194 ft 594 kts 113°
2026-05-01 13:39 33.65813 178.07607 36188 ft 595 kts 112°
2026-05-01 13:40 33.62744 178.16842 36188 ft 595 kts 114°
2026-05-01 13:40 33.59684 178.26025 36196 ft 592 kts 114°
2026-05-01 13:41 33.56620 178.35193 36187 ft 592 kts 114°
2026-05-01 13:41 33.53552 178.44345 36188 ft 592 kts 114°
2026-05-01 13:42 33.50476 178.53491 36186 ft 589 kts 115°
2026-05-01 13:42 33.47416 178.62570 36183 ft 586 kts 115°
2026-05-01 13:43 33.44381 178.71546 36188 ft 586 kts 115°
2026-05-01 13:43 33.41313 178.80591 36120 ft 586 kts 114°
2026-05-01 13:44 33.38243 178.89620 36183 ft 587 kts 115°
2026-05-01 13:44 33.35167 178.98641 36182 ft 584 kts 115°
2026-05-01 13:45 33.32092 179.07633 36181 ft 583 kts 115°
2026-05-01 13:45 33.29011 179.16614 36178 ft 583 kts 115°
2026-05-01 13:46 33.25925 179.25587 36192 ft 583 kts 115°
2026-05-01 13:46 33.22864 179.34463 36180 ft 579 kts 116°
2026-05-01 13:47 33.19794 179.43342 36174 ft 578 kts 116°
2026-05-01 13:47 33.16717 179.52215 36172 ft 578 kts 116°
2026-05-01 13:48 33.13633 179.61080 36172 ft 578 kts 115°
2026-05-01 13:48 33.10551 179.69918 36168 ft 576 kts 116°
2026-05-01 13:49 33.07471 179.78732 36165 ft 575 kts 116°
2026-05-01 13:49 33.04385 179.87534 36173 ft 575 kts 116°
2026-05-01 13:50 33.01295 179.96324 36172 ft 575 kts 116°
2026-05-01 13:50 32.98220 -179.94892 36160 ft 573 kts 116°
2026-05-01 13:51 32.95202 -179.86161 36166 ft 569 kts 116°
2026-05-01 13:51 32.92208 -179.77514 36165 ft 569 kts 116°
2026-05-01 13:52 32.89178 -179.68804 36162 ft 569 kts 116°
2026-05-01 13:52 32.86149 -179.60126 36161 ft 567 kts 116°
2026-05-01 13:53 32.83123 -179.51480 36160 ft 566 kts 116°
2026-05-01 13:53 32.78591 -179.38575 36154 ft 566 kts 116°
2026-05-01 13:54 32.75554 -179.29954 36154 ft 566 kts 116°
2026-05-01 13:54 32.72508 -179.21329 36151 ft 565 kts 117°
2026-05-01 13:55 32.69476 -179.12759 36147 ft 561 kts 117°
2026-05-01 13:55 32.66449 -179.04236 36149 ft 560 kts 117°
2026-05-01 13:56 32.63414 -178.95715 36146 ft 560 kts 117°
2026-05-01 13:56 32.60377 -178.87205 36113 ft 559 kts 116°
2026-05-01 13:57 32.57863 -178.80176 36142 ft 555 kts 117°
2026-05-01 13:57 32.54859 -178.71791 36136 ft 551 kts 117°
2026-05-01 13:58 32.51857 -178.63442 36141 ft 551 kts 117°
2026-05-01 13:58 32.48850 -178.55102 36136 ft 551 kts 117°
2026-05-01 13:59 32.45836 -178.46760 36118 ft 551 kts 118°
2026-05-01 13:59 32.42828 -178.38451 36129 ft 546 kts 118°
2026-05-01 14:00 32.39832 -178.30196 36129 ft 546 kts 118°
2026-05-01 14:00 32.36831 -178.21953 36127 ft 546 kts 118°
2026-05-01 14:01 32.33842 -178.13761 36122 ft 546 kts 118°
2026-05-01 14:01 32.30833 -178.05533 36118 ft 544 kts 118°
2026-05-01 14:02 32.27830 -177.97338 36121 ft 542 kts 118°
2026-05-01 14:02 32.24823 -177.89159 36118 ft 542 kts 118°
2026-05-01 14:03 32.21813 -177.80989 36116 ft 542 kts 118°
2026-05-01 14:03 32.18798 -177.72827 36116 ft 542 kts 118°
2026-05-01 14:04 32.15785 -177.64683 36112 ft 540 kts 118°
2026-05-01 14:04 32.12776 -177.56570 36113 ft 539 kts 118°
2026-05-01 14:05 32.09765 -177.48478 36111 ft 539 kts 118°
2026-05-01 14:05 32.06748 -177.40388 36108 ft 539 kts 118°
2026-05-01 14:06 32.03725 -177.32298 36078 ft 538 kts 118°
2026-05-01 14:06 32.00713 -177.24254 36107 ft 535 kts 118°
2026-05-01 14:07 31.97723 -177.16289 36108 ft 535 kts 118°
2026-05-01 14:08 31.93198 -177.04273 36103 ft 535 kts 118°
2026-05-01 14:08 31.90173 -176.96265 36102 ft 535 kts 119°
2026-05-01 14:09 31.87150 -176.88276 36103 ft 533 kts 119°
2026-05-01 14:09 31.84130 -176.80314 36103 ft 533 kts 119°
2026-05-01 14:10 31.81103 -176.72354 36101 ft 533 kts 119°
2026-05-01 14:10 31.78095 -176.64463 36103 ft 533 kts 119°
2026-05-01 14:11 31.75062 -176.56524 36049 ft 532 kts 118°
2026-05-01 14:11 31.70512 -176.44647 36104 ft 530 kts 118°
2026-05-01 14:12 31.67478 -176.36747 36111 ft 530 kts 118°
2026-05-01 14:12 31.64441 -176.28861 36111 ft 530 kts 119°
2026-05-01 14:13 31.61909 -176.22299 36107 ft 530 kts 119°
2026-05-01 14:13 31.58349 -176.13090 36108 ft 529 kts 118°
2026-05-01 14:14 31.55306 -176.05239 36114 ft 529 kts 118°
2026-05-01 14:14 31.52257 -175.97392 36114 ft 529 kts 119°
2026-05-01 14:15 31.49222 -175.89596 36115 ft 529 kts 119°
2026-05-01 14:15 31.46166 -175.81765 36117 ft 529 kts 119°
2026-05-01 14:16 31.43158 -175.73935 36125 ft 527 kts 116°
2026-05-01 14:16 31.40172 -175.66110 36110 ft 526 kts 117°
2026-05-01 14:17 31.37140 -175.58310 36112 ft 526 kts 117°
2026-05-01 14:17 31.34082 -175.50536 36114 ft 526 kts 117°
2026-05-01 14:18 31.31015 -175.42771 36134 ft 526 kts 117°
2026-05-01 14:18 31.28470 -175.36336 36124 ft 523 kts 117°
2026-05-01 14:19 31.24905 -175.27336 36129 ft 522 kts 117°
2026-05-01 14:19 31.21850 -175.19645 36126 ft 522 kts 117°
2026-05-01 14:20 31.17278 -175.08164 36132 ft 522 kts 117°
2026-05-01 14:21 31.14214 -175.00486 36126 ft 520 kts 117°
2026-05-01 14:21 31.11169 -174.92870 36129 ft 517 kts 117°
2026-05-01 14:22 31.06595 -174.81473 36136 ft 517 kts 117°
2026-05-01 14:22 31.03538 -174.73870 36135 ft 517 kts 117°
2026-05-01 14:23 31.00479 -174.66282 36126 ft 517 kts 117°
2026-05-01 14:23 30.97421 -174.58702 36135 ft 514 kts 117°
2026-05-01 14:24 30.94393 -174.51222 36136 ft 514 kts 117°
2026-05-01 14:24 30.91340 -174.43696 36135 ft 514 kts 117°
2026-05-01 14:25 30.88286 -174.36183 36138 ft 513 kts 117°
2026-05-01 14:25 30.85227 -174.28669 36138 ft 513 kts 117°
2026-05-01 14:26 30.80647 -174.17446 36143 ft 510 kts 117°
2026-05-01 14:27 30.77598 -174.09999 36149 ft 510 kts 117°
2026-05-01 14:27 30.74544 -174.02554 36144 ft 510 kts 117°
2026-05-01 14:28 30.69982 -173.91457 36149 ft 510 kts 117°
2026-05-01 14:28 30.66924 -173.84037 36149 ft 508 kts 117°
2026-05-01 14:29 30.63869 -173.76642 36148 ft 508 kts 117°
2026-05-01 14:30 30.57747 -173.61862 36153 ft 508 kts 117°
2026-05-01 14:31 30.53146 -173.50795 36146 ft 507 kts 117°
2026-05-01 14:31 30.50082 -173.43441 36147 ft 505 kts 116°
2026-05-01 14:32 30.47022 -173.36113 36156 ft 505 kts 116°
2026-05-01 14:32 30.43959 -173.28792 36160 ft 505 kts 116°
2026-05-01 14:33 30.40910 -173.21519 36149 ft 505 kts 116°
2026-05-01 14:33 30.37839 -173.14209 36154 ft 504 kts 116°
2026-05-01 14:34 30.34775 -173.06926 36153 ft 502 kts 116°
2026-05-01 14:34 30.31710 -172.99657 36151 ft 502 kts 116°
2026-05-01 14:35 30.28643 -172.92398 36153 ft 502 kts 116°
2026-05-01 14:35 30.25573 -172.85146 36156 ft 502 kts 116°
2026-05-01 14:36 30.22497 -172.77893 36159 ft 502 kts 116°
2026-05-01 14:36 30.19422 -172.70654 36144 ft 501 kts 116°
2026-05-01 14:37 30.16354 -172.63447 36159 ft 499 kts 116°
2026-05-01 14:37 30.13285 -172.56253 36160 ft 499 kts 116°
2026-05-01 14:38 30.10217 -172.49075 36158 ft 499 kts 116°
2026-05-01 14:38 30.07139 -172.41886 36157 ft 499 kts 116°
2026-05-01 14:39 30.04056 -172.34699 36151 ft 498 kts 116°
2026-05-01 14:39 30.00983 -172.27547 36148 ft 497 kts 116°
2026-05-01 14:40 29.97906 -172.20402 36151 ft 497 kts 116°
2026-05-01 14:40 29.94825 -172.13261 36147 ft 497 kts 116°
2026-05-01 14:41 29.91759 -172.06165 36147 ft 497 kts 116°
2026-05-01 14:41 29.88668 -171.99028 36144 ft 497 kts 116°
2026-05-01 14:42 29.85576 -171.91899 36157 ft 497 kts 116°
2026-05-01 14:42 29.82488 -171.84795 36160 ft 496 kts 116°
2026-05-01 14:43 29.79395 -171.77691 36160 ft 496 kts 116°
2026-05-01 14:43 29.76299 -171.70593 36160 ft 496 kts 116°
2026-05-01 14:44 29.73198 -171.63497 36158 ft 496 kts 116°
2026-05-01 14:44 29.68571 -171.52934 36156 ft 495 kts 116°
2026-05-01 14:45 29.63915 -171.42334 36160 ft 495 kts 116°
2026-05-01 14:46 29.61313 -171.36422 36164 ft 495 kts 116°
2026-05-01 14:46 29.56667 -171.25888 36162 ft 494 kts 116°
2026-05-01 14:47 29.53558 -171.18854 36164 ft 494 kts 116°
2026-05-01 14:48 29.48888 -171.08316 36164 ft 493 kts 116°
2026-05-01 14:48 29.44216 -170.97800 36165 ft 493 kts 116°
2026-05-01 14:49 29.37978 -170.83804 36167 ft 492 kts 116°
2026-05-01 14:50 29.31734 -170.69843 36167 ft 492 kts 116°
2026-05-01 14:51 29.27049 -170.59401 36170 ft 495 kts 116°
2026-05-01 14:52 29.22287 -170.48806 36169 ft 502 kts 116°
2026-05-01 14:53 29.17470 -170.38114 36172 ft 509 kts 116°
2026-05-01 14:53 29.14200 -170.30872 36177 ft 514 kts 116°
2026-05-01 14:54 29.10900 -170.23578 36180 ft 519 kts 116°
2026-05-01 14:54 29.07565 -170.16223 36184 ft 522 kts 115°
2026-05-01 14:55 29.04227 -170.08875 36178 ft 521 kts 116°
2026-05-01 14:55 29.00881 -170.01547 36177 ft 520 kts 118°
2026-05-01 14:56 28.96997 -169.94569 36181 ft 520 kts 122°
2026-05-01 14:56 28.92974 -169.87708 36182 ft 520 kts 123°
2026-05-01 14:57 28.88916 -169.80883 36181 ft 520 kts 123°
2026-05-01 14:57 28.82855 -169.70689 36181 ft 520 kts 122°
2026-05-01 14:58 28.78799 -169.63866 36181 ft 520 kts 122°
2026-05-01 14:58 28.74735 -169.57037 36183 ft 520 kts 122°
2026-05-01 14:59 28.70670 -169.50216 36181 ft 520 kts 122°
2026-05-01 14:59 28.66602 -169.43403 36181 ft 520 kts 122°
2026-05-01 15:00 28.60501 -169.33207 36184 ft 519 kts 122°
2026-05-01 15:01 28.56435 -169.26423 36184 ft 519 kts 122°
2026-05-01 15:01 28.52388 -169.19684 36173 ft 519 kts 122°
2026-05-01 15:02 28.48317 -169.12915 36184 ft 518 kts 122°
2026-05-01 15:02 28.44243 -169.06153 36184 ft 518 kts 122°
2026-05-01 15:03 28.40169 -168.99400 36184 ft 517 kts 123°
2026-05-01 15:03 28.36042 -168.92701 36184 ft 517 kts 125°
2026-05-01 15:04 28.31933 -168.86066 36184 ft 517 kts 124°
2026-05-01 15:04 28.27838 -168.79367 36184 ft 517 kts 124°
2026-05-01 15:05 28.23761 -168.72655 36184 ft 517 kts 124°
2026-05-01 15:05 28.19688 -168.65950 36187 ft 516 kts 124°
2026-05-01 15:06 28.15615 -168.59259 36184 ft 515 kts 124°
2026-05-01 15:06 28.11549 -168.52592 36184 ft 514 kts 124°
2026-05-01 15:07 28.07480 -168.45932 36183 ft 514 kts 124°
2026-05-01 15:07 28.03406 -168.39275 36184 ft 514 kts 124°
2026-05-01 15:08 27.99328 -168.32621 36184 ft 514 kts 124°
2026-05-01 15:08 27.95273 -168.26014 36183 ft 514 kts 124°
2026-05-01 15:09 27.91191 -168.19373 36184 ft 514 kts 124°
2026-05-01 15:09 27.87108 -168.12741 36184 ft 514 kts 124°
2026-05-01 15:10 27.83020 -168.06112 36184 ft 514 kts 124°
2026-05-01 15:10 27.76878 -167.96170 36184 ft 514 kts 124°
2026-05-01 15:11 27.70742 -167.86261 36184 ft 512 kts 125°
2026-05-01 15:12 27.66659 -167.79680 36184 ft 512 kts 125°
2026-05-01 15:12 27.60530 -167.69817 36184 ft 512 kts 125°
2026-05-01 15:14 27.50351 -167.53490 36180 ft 510 kts 125°
2026-05-01 15:14 27.44224 -167.43690 36184 ft 510 kts 125°
2026-05-01 15:15 27.36048 -167.30648 36181 ft 510 kts 125°
2026-05-01 15:16 27.27861 -167.17628 36181 ft 509 kts 125°
2026-05-01 15:18 27.17640 -167.01425 36178 ft 508 kts 125°
2026-05-01 15:19 27.09476 -166.88525 36178 ft 509 kts 125°
2026-05-01 15:19 27.03324 -166.78830 36178 ft 508 kts 126°
2026-05-01 15:20 26.97163 -166.69142 36179 ft 509 kts 126°
2026-05-01 15:21 26.93051 -166.62687 36177 ft 508 kts 126°
2026-05-01 15:21 26.88936 -166.56237 36178 ft 508 kts 126°
2026-05-01 15:22 26.82770 -166.46589 36179 ft 508 kts 126°
2026-05-01 15:22 26.78651 -166.40155 36176 ft 509 kts 126°
2026-05-01 15:23 26.74550 -166.33759 36176 ft 509 kts 126°
2026-05-01 15:23 26.70418 -166.27325 36177 ft 509 kts 126°
2026-05-01 15:24 26.66294 -166.20910 36173 ft 508 kts 126°
2026-05-01 15:24 26.62162 -166.14494 36172 ft 509 kts 126°
2026-05-01 15:25 26.58022 -166.08073 36173 ft 509 kts 126°
2026-05-01 15:25 26.53884 -166.01666 36171 ft 508 kts 126°
2026-05-01 15:26 26.49747 -165.95268 36174 ft 507 kts 126°
2026-05-01 15:26 26.45614 -165.88886 36170 ft 508 kts 126°
2026-05-01 15:27 26.41460 -165.82479 36171 ft 509 kts 126°
2026-05-01 15:28 26.35216 -165.72869 36170 ft 509 kts 126°
2026-05-01 15:28 26.31087 -165.66523 36170 ft 508 kts 126°
2026-05-01 15:29 26.24861 -165.56973 36172 ft 508 kts 126°
2026-05-01 15:30 26.17225 -165.45287 36171 ft 509 kts 126°
2026-05-01 15:31 26.04034 -165.25168 36167 ft 508 kts 126°
2026-05-01 15:32 25.95675 -165.12465 36166 ft 508 kts 126°
2026-05-01 15:34 25.83868 -164.94581 36167 ft 507 kts 126°